Theta_e
342 349 351 352 350 355 354 356 356 355 351 334 336 343 347 357 353 354 354 352 351 349 348 344 342 343 345 343 344 344 344 346 344 343 342 348 349 347 350 350 351 351 352 352 352 351 351 349 349 350 348 348 348 348 348 346 346 344 347 349 349 349 351 352 353 351 348 352 353 351 350 349 350 351 352 352 352 351 350 350 352 352 351 352 352 351 351 349 349 348 351 351 351 351 350 349 348
349 351 349 351 351 355 356 358 355 342 338 331 338 346 348 358 354 354 354 353 350 345 344 341 343 346 345 342 341 343 345 344 341 344 346 348 348 348 350 350 351 351 352 353 353 353 352 348 349 351 349 349 348 348 348 347 346 346 349 349 349 351 352 353 352 350 349 352 354 354 353 352 351 352 352 352 352 351 350 351 352 351 350 351 351 351 349 348 348 348 351 351 351 350 348 348 348
350 350 350 353 352 355 357 359 351 333 330 331 338 350 353 357 354 354 353 349 346 343 342 342 345 346 344 342 342 344 345 342 340 341 345 347 347 348 349 350 351 351 352 353 353 354 352 349 349 351 350 349 348 347 347 347 346 347 349 347 348 352 353 353 351 350 349 351 353 354 354 353 352 353 353 352 351 350 350 352 353 353 350 349 349 350 349 348 348 349 350 350 351 350 347 346 347
349 352 353 353 354 358 361 360 353 334 329 329 335 352 356 355 355 352 349 346 344 342 342 344 346 345 346 345 342 344 343 341 342 342 344 345 345 348 349 351 352 352 352 352 353 354 352 348 348 350 350 348 347 347 347 347 347 347 347 347 349 353 354 353 351 349 348 350 352 353 354 354 353 353 353 352 352 350 351 353 354 354 352 349 348 349 350 349 348 348 348 348 349 349 347 345 344
351 353 353 353 358 359 361 358 353 341 335 334 336 352 356 352 354 350 348 345 344 343 343 346 346 345 345 344 342 343 342 340 343 343 344 344 345 348 350 352 352 352 353 353 354 354 352 347 346 350 349 347 347 347 347 348 347 348 350 350 351 352 353 352 350 347 347 349 351 353 354 354 354 353 352 352 352 351 352 353 353 354 353 351 349 348 349 348 348 347 347 347 347 347 346 344 342
353 355 354 354 358 356 359 354 346 343 349 350 344 353 356 352 355 350 347 345 344 345 345 346 345 344 343 343 342 341 341 340 343 344 344 345 346 348 350 351 352 351 353 354 354 355 353 347 346 348 349 347 348 347 347 348 347 349 350 350 350 352 353 352 350 346 347 350 351 351 353 353 354 353 351 352 351 351 351 352 353 353 353 352 350 349 348 349 349 348 347 347 348 347 345 343 342
354 356 356 357 358 357 359 351 341 343 354 360 353 354 356 353 352 349 347 346 347 347 346 345 342 344 343 342 343 343 343 342 344 345 345 346 347 348 349 350 351 351 352 354 355 356 352 348 347 348 350 348 348 348 348 348 349 350 349 350 351 353 353 352 351 349 349 350 349 349 351 352 352 352 352 352 351 352 351 351 353 353 353 352 351 351 349 349 349 349 349 348 350 349 346 345 343
356 355 355 359 361 359 355 347 346 351 354 359 359 355 355 354 350 350 349 348 349 348 346 344 341 344 344 342 343 344 344 345 346 346 346 347 348 348 349 350 351 350 352 355 355 355 350 348 348 349 351 351 348 348 349 349 351 350 348 352 353 353 353 352 352 351 350 348 347 348 349 350 350 350 352 352 352 353 352 352 352 353 354 353 352 351 350 348 348 348 349 350 350 350 347 345 344
356 356 355 358 357 354 349 346 352 356 357 360 358 356 355 353 350 351 350 347 349 346 345 343 341 345 345 344 344 344 345 346 346 346 346 347 348 348 349 349 350 352 353 355 354 354 351 348 350 350 352 353 351 350 350 351 351 350 350 353 354 353 353 352 351 351 350 347 347 349 348 349 350 349 350 351 351 352 352 351 351 352 353 353 353 351 350 349 348 347 348 351 351 350 347 345 345
356 356 357 358 352 348 344 347 353 356 360 359 358 357 354 353 352 352 350 348 348 346 346 342 341 344 343 343 344 344 345 346 346 346 346 347 349 348 349 348 350 353 354 354 353 354 352 350 351 352 352 353 353 352 352 353 353 352 353 353 354 353 351 351 352 352 351 349 349 350 348 348 349 349 349 350 350 351 351 351 351 352 353 353 354 352 351 352 351 349 349 351 351 349 348 346 345
357 355 356 354 342 341 343 348 355 359 360 357 358 356 354 353 352 351 349 348 347 346 345 343 342 343 343 345 346 346 345 345 346 347 347 348 349 348 349 349 351 352 353 354 353 353 352 351 350 350 352 352 353 353 353 353 353 353 353 353 353 352 350 350 351 352 351 351 350 350 348 347 348 349 349 349 350 350 350 351 351 352 353 353 353 353 353 353 353 352 351 350 350 350 349 348 348
357 356 358 351 338 342 348 351 356 360 359 356 356 356 353 353 351 352 350 347 347 347 346 344 343 341 344 346 346 345 345 345 346 347 347 348 349 349 349 350 350 351 352 352 353 352 352 352 349 348 349 351 351 351 352 352 353 353 352 352 352 351 351 350 351 351 351 351 349 348 347 348 347 348 348 349 349 349 350 351 352 353 353 353 353 354 353 352 352 353 351 350 351 351 350 350 350
356 357 358 352 345 351 352 353 358 359 357 357 357 356 353 352 352 351 349 347 346 348 346 344 341 341 344 345 346 344 344 346 346 347 348 348 349 349 349 350 350 350 351 350 351 352 353 354 351 348 347 348 350 350 351 351 352 352 350 351 351 352 351 351 351 351 351 350 348 347 348 349 348 348 347 349 349 349 350 351 353 353 353 352 352 352 352 351 351 352 351 350 352 351 350 350 350
355 355 357 355 352 357 354 353 356 354 352 358 359 355 354 354 352 350 348 348 347 347 346 343 340 343 345 346 345 343 345 347 347 347 349 350 349 349 350 350 350 350 350 350 351 352 354 353 353 351 349 350 351 351 351 350 351 351 350 350 350 351 351 351 351 350 350 349 348 348 349 349 349 349 348 349 350 349 349 351 353 353 353 352 351 350 351 351 350 351 350 350 351 349 349 349 348
354 354 357 356 351 352 354 356 356 352 351 357 358 354 356 354 350 350 349 350 349 345 344 345 342 344 344 345 344 343 347 348 348 349 349 350 349 349 350 350 350 350 351 352 352 353 354 353 353 353 351 352 352 352 352 350 350 350 351 350 350 351 351 352 351 351 350 350 350 350 350 349 348 348 349 350 350 349 349 351 353 353 352 351 350 348 348 348 348 349 349 349 349 348 348 347 347
352 354 357 354 347 345 351 358 358 353 353 356 355 354 354 352 350 352 351 349 348 344 344 345 342 343 341 341 343 345 349 349 349 349 349 350 350 350 350 349 349 350 351 352 353 354 354 354 354 353 352 352 352 352 353 351 349 350 350 349 351 351 351 352 351 351 351 351 350 350 350 349 348 348 349 350 349 350 350 350 352 353 351 350 348 344 343 343 346 348 348 348 347 348 347 346 346
350 355 356 349 344 347 352 358 358 354 355 356 355 354 354 353 351 350 348 345 345 344 344 343 343 343 341 341 345 348 349 349 349 349 350 351 350 349 349 349 350 350 351 351 353 354 354 354 353 352 352 352 352 352 352 351 349 350 350 349 350 350 351 351 351 351 351 351 350 350 351 351 351 350 349 348 348 349 348 349 351 352 349 348 345 341 340 341 344 346 347 347 347 347 347 346 345
352 357 353 345 348 354 356 360 358 356 357 356 355 354 354 354 351 347 346 347 347 346 345 344 345 345 344 346 348 349 350 349 348 349 350 351 349 349 349 349 350 350 351 351 352 354 354 353 353 352 352 352 352 351 351 350 350 350 350 351 350 349 351 351 350 352 351 350 351 352 353 354 354 352 350 348 349 349 347 348 350 349 346 345 343 339 339 341 342 344 346 346 346 346 348 349 347
353 356 351 349 356 358 358 359 358 358 357 355 356 355 354 354 350 348 349 349 348 346 346 346 346 347 346 348 349 349 350 348 348 348 349 349 349 348 349 349 350 351 351 351 352 353 354 353 353 351 351 352 351 351 350 350 350 350 350 351 350 349 352 352 352 352 352 351 352 354 354 354 353 352 350 349 350 349 347 347 347 345 343 340 338 338 338 340 343 344 345 345 346 348 348 349 348
353 355 355 355 359 358 358 359 359 359 358 355 356 356 354 353 348 349 351 348 346 346 346 347 348 347 345 347 350 349 348 348 348 348 348 348 348 348 347 348 350 350 351 351 352 353 353 353 352 350 351 352 352 351 350 351 351 351 350 350 350 350 352 352 352 353 353 353 354 355 353 351 350 349 349 349 350 349 348 346 344 344 341 337 339 343 342 342 344 345 345 346 347 348 348 348 348
352 354 356 357 358 358 358 357 359 358 357 357 355 356 355 351 349 352 351 346 345 344 344 345 346 346 345 345 348 349 347 348 349 348 347 347 347 346 347 348 349 350 351 352 352 353 353 353 351 350 351 352 352 352 351 351 351 351 351 351 351 351 351 351 351 352 352 353 354 353 351 350 351 351 351 352 353 351 350 348 346 347 346 343 346 349 348 348 348 347 347 347 347 347 348 348 349
351 353 354 356 356 358 358 355 356 356 357 357 355 357 356 351 351 351 349 348 346 344 343 344 344 345 345 345 347 348 348 349 350 348 347 347 347 346 347 348 350 350 351 351 352 352 352 352 351 351 352 352 352 352 351 351 351 351 352 352 351 350 350 350 350 351 352 354 354 353 352 352 353 354 354 354 352 350 350 349 347 347 347 348 349 350 350 350 349 348 348 347 348 347 348 349 350
350 351 353 356 357 358 356 353 353 356 358 358 357 356 353 351 351 349 350 351 346 343 344 344 344 345 346 347 347 345 346 350 351 349 347 347 346 347 348 348 349 350 350 351 351 352 352 351 350 351 352 353 353 353 352 352 351 351 351 351 351 351 350 350 350 351 352 354 354 353 353 353 353 354 354 352 350 350 349 347 347 347 347 349 350 350 350 349 348 349 349 348 349 348 348 349 349
348 348 352 356 358 357 355 354 354 356 358 358 356 353 351 352 353 349 352 350 344 344 345 345 347 348 348 347 346 346 348 351 350 349 348 347 347 347 348 348 349 350 350 350 351 351 351 350 351 352 353 353 353 354 353 352 352 352 351 351 351 351 350 350 350 351 352 354 354 354 353 353 353 353 352 350 349 349 347 347 347 347 348 350 351 350 350 349 349 350 350 349 349 349 349 349 349
348 350 356 358 358 357 355 355 355 355 356 355 353 353 353 354 352 351 350 346 344 345 345 346 347 347 347 345 346 348 349 352 350 348 348 348 348 348 349 349 348 350 350 350 350 350 349 350 352 352 353 354 354 353 352 352 353 352 352 351 351 351 351 351 351 352 352 353 355 355 354 353 352 352 351 350 349 348 348 348 348 349 349 351 351 351 350 350 349 350 350 350 349 349 349 349 349
351 353 358 359 358 357 356 357 356 355 356 355 354 356 356 353 351 352 349 345 345 345 346 346 346 345 345 345 347 349 349 351 351 349 349 349 349 349 350 349 348 349 349 349 350 350 349 350 351 353 353 354 353 353 352 352 352 352 352 351 351 351 351 352 352 352 352 353 354 354 355 354 352 351 351 350 349 349 349 349 349 349 351 351 351 350 351 351 350 349 350 350 350 350 349 350 349
351 353 356 359 359 357 355 358 357 356 355 356 357 356 355 351 350 353 348 345 346 345 347 346 346 346 346 346 347 351 351 351 351 349 350 349 349 350 349 349 348 349 348 349 351 350 349 349 351 353 353 353 353 353 352 352 352 352 352 352 351 352 352 353 353 352 353 353 353 352 353 354 352 351 351 350 349 350 350 350 350 350 351 351 351 351 351 351 350 350 351 351 351 351 349 350 349
349 352 355 358 359 358 357 358 358 357 357 356 356 356 355 351 352 354 347 346 347 345 347 347 346 346 347 347 347 351 352 351 352 350 349 349 349 349 349 348 347 348 348 349 351 350 349 350 351 352 352 352 352 352 352 352 352 352 352 352 352 352 352 352 352 352 352 352 352 351 352 352 352 351 351 351 352 352 352 351 352 352 351 351 351 351 352 351 351 350 351 352 351 351 349 349 349
351 354 357 359 360 361 360 359 358 357 357 355 355 356 357 355 353 352 348 346 346 346 347 347 347 346 347 348 348 351 352 352 352 350 349 348 348 349 348 348 346 348 349 350 351 350 350 350 351 352 352 351 350 349 350 351 352 352 352 352 352 351 352 351 351 352 352 352 352 352 351 351 351 352 352 353 353 354 354 353 352 352 352 352 353 354 352 351 350 350 350 350 350 350 348 348 348
354 356 357 359 357 359 361 360 359 359 357 355 355 352 354 357 354 350 348 347 347 347 347 347 347 346 347 348 348 348 351 353 351 349 349 347 347 349 349 348 346 348 350 350 350 350 349 350 350 351 351 350 349 348 349 350 351 351 351 351 351 350 350 350 350 351 351 352 352 352 351 351 352 352 352 354 354 354 353 353 352 352 353 353 354 354 352 351 351 350 349 349 349 349 348 348 347
357 356 355 356 347 351 361 358 360 361 356 355 358 354 354 357 354 349 348 347 348 347 347 347 347 347 347 347 347 347 350 351 350 348 349 348 348 349 349 349 347 348 349 349 350 350 349 349 350 350 351 350 349 348 348 349 350 350 350 350 350 350 349 350 350 350 351 351 352 352 351 351 352 352 353 355 355 354 353 352 353 354 355 354 353 354 353 351 351 351 351 351 349 348 347 347 346
358 349 345 351 343 348 363 358 358 362 355 354 357 356 357 359 355 350 348 347 347 347 347 347 346 347 347 347 347 346 348 349 349 348 348 349 349 350 350 349 348 348 349 349 350 350 349 349 349 350 350 349 349 349 348 349 349 349 349 350 350 350 349 349 350 350 350 351 351 351 352 351 351 352 353 355 356 354 353 352 353 355 356 356 354 354 353 351 351 351 352 352 351 351 349 346 345
355 347 338 344 342 345 357 357 357 358 356 355 356 357 359 359 355 350 348 347 347 347 347 347 346 347 347 346 345 345 346 346 347 349 348 349 349 349 350 349 349 349 348 350 350 350 349 349 349 350 349 349 349 348 349 349 349 349 349 349 349 349 349 350 350 350 350 351 351 351 352 351 350 352 353 355 356 354 354 353 353 356 357 357 356 354 352 352 352 352 352 352 353 352 348 346 345
341 346 341 344 346 343 348 355 357 355 357 359 358 360 359 358 354 349 349 348 347 348 348 347 345 346 347 346 344 344 344 344 346 349 348 348 349 349 350 349 349 349 349 350 350 350 349 349 350 349 349 349 348 348 349 349 349 349 349 349 350 349 349 349 349 350 350 351 352 351 352 351 351 353 354 355 356 354 353 354 354 357 358 358 357 354 352 353 353 353 353 353 354 353 349 347 346
335 339 338 340 345 344 347 354 357 356 358 360 360 362 360 356 353 350 350 349 349 349 349 348 346 345 347 346 344 343 344 344 345 348 348 348 350 349 350 350 349 349 349 350 350 350 350 350 350 349 348 348 349 349 349 349 349 349 349 349 350 349 349 349 349 350 350 350 351 351 351 351 351 354 354 355 357 355 354 355 356 357 358 358 357 354 353 354 356 356 354 354 356 354 351 349 347
341 341 338 335 338 343 352 357 357 358 358 361 362 361 359 356 354 352 349 350 351 351 350 349 347 346 346 345 343 343 343 343 345 347 348 348 350 350 350 350 349 350 350 350 350 350 350 350 350 349 349 349 349 349 349 349 350 350 350 349 349 350 350 350 350 350 350 350 350 350 350 352 352 353 354 355 356 356 356 356 357 357 357 358 358 357 355 356 358 358 356 357 357 352 350 348 346
346 345 340 336 336 342 355 359 357 358 357 360 362 359 359 356 355 353 350 350 351 352 352 350 349 348 346 345 343 343 343 344 346 347 348 348 350 350 351 350 350 351 351 351 351 351 351 351 350 350 349 350 350 350 350 350 350 350 350 349 349 349 350 350 351 350 350 350 350 350 351 352 353 353 354 355 356 356 356 358 358 358 358 359 360 360 358 359 359 358 358 359 356 351 349 346 345
342 343 339 336 335 343 357 359 356 357 357 358 361 359 358 357 355 354 351 351 351 351 352 351 350 349 346 345 343 343 343 344 345 347 349 349 350 351 351 351 350 351 353 352 351 351 351 350 350 350 350 350 349 349 350 350 350 351 350 349 348 349 350 350 350 349 349 350 351 352 352 352 353 354 355 356 357 357 357 358 358 358 359 360 361 360 358 359 359 359 359 358 355 351 349 347 348
338 340 337 332 334 343 353 358 357 356 356 358 360 360 360 358 355 354 353 352 352 351 352 352 351 350 347 345 343 343 343 344 344 346 349 349 350 351 352 352 351 351 353 352 351 352 352 351 352 351 350 350 350 350 351 350 350 351 350 350 349 349 350 350 350 350 349 349 350 352 353 354 355 355 355 355 356 358 358 357 357 358 360 360 361 360 359 359 359 360 359 358 357 352 348 347 348
334 336 330 329 334 336 338 350 358 356 356 357 358 360 360 358 355 354 353 353 353 353 352 351 350 350 347 344 342 342 343 345 344 344 347 349 350 351 352 353 352 352 352 352 352 352 352 353 353 352 351 351 351 351 351 351 351 352 352 352 352 351 351 352 351 351 350 350 350 353 354 356 356 355 355 355 356 358 358 358 357 358 360 359 360 359 358 358 358 359 360 359 358 353 348 347 348
329 332 327 327 335 334 335 348 357 356 357 358 358 356 356 357 356 355 352 351 353 353 351 351 351 350 347 344 342 342 343 345 344 343 346 349 350 351 352 353 352 352 352 351 352 352 352 353 354 354 353 352 352 352 351 350 351 351 352 352 353 353 352 352 352 351 351 351 351 352 354 355 355 355 356 356 357 358 358 358 359 359 359 359 359 359 358 358 357 359 360 360 358 356 354 349 347
322 329 330 330 335 338 343 352 351 346 347 355 357 351 353 358 358 356 355 354 354 354 352 351 352 350 348 346 342 341 342 343 344 344 345 348 350 351 352 352 352 352 352 352 351 351 352 354 354 354 354 354 352 353 352 351 350 351 351 351 352 353 353 353 352 351 351 352 351 351 353 354 355 355 355 355 357 358 358 359 360 360 359 359 358 358 358 358 357 357 359 360 358 359 360 355 348
318 326 333 335 336 340 346 351 345 335 341 356 355 348 351 355 357 359 357 355 355 355 353 351 352 351 348 347 344 341 341 341 343 344 345 348 349 351 352 351 351 351 352 352 351 351 353 354 355 355 355 354 353 353 352 351 351 351 352 352 352 353 353 352 352 351 350 350 351 351 353 354 354 354 354 355 356 358 360 359 359 359 358 358 357 358 358 357 357 358 359 360 359 361 361 358 354
320 330 333 333 336 344 349 349 343 338 344 354 354 350 350 350 356 362 359 356 355 355 355 352 352 352 348 347 345 341 341 341 342 343 343 347 350 350 351 351 350 350 352 352 351 351 353 355 356 355 354 353 353 353 352 351 351 352 352 352 352 352 351 352 352 352 351 351 352 352 351 352 354 355 355 355 356 358 360 360 360 359 358 358 356 357 357 357 358 359 360 361 361 361 360 359 358
327 335 334 333 340 348 351 343 339 343 344 341 347 351 345 343 354 363 360 355 354 355 356 354 352 352 349 347 345 341 341 341 341 342 343 347 349 349 350 350 350 350 351 352 351 352 354 356 356 355 354 353 353 353 353 352 352 352 353 351 352 351 349 350 351 351 352 352 352 352 352 352 353 355 355 356 356 357 358 360 360 359 358 357 356 357 357 357 358 359 360 360 361 361 359 360 361
331 336 334 336 342 346 349 342 336 342 341 334 341 349 341 338 349 359 359 353 352 353 353 353 353 352 350 346 345 342 341 342 341 342 344 346 347 349 349 349 349 350 351 352 351 352 354 356 356 355 355 353 353 353 353 353 353 352 352 352 351 351 350 350 350 351 353 352 352 352 353 353 352 352 353 354 355 356 357 358 358 358 357 356 357 358 358 357 357 358 360 360 360 361 360 359 360
331 334 334 337 342 345 345 340 337 339 337 334 341 347 342 336 342 354 358 354 353 351 350 352 353 352 350 347 344 342 341 342 342 342 344 346 346 348 349 349 349 350 352 352 352 352 353 355 356 356 356 354 353 353 353 353 353 352 352 352 352 351 351 352 352 352 353 353 352 352 352 353 352 350 350 351 353 355 356 358 358 357 358 357 357 358 357 357 356 357 359 359 360 361 360 359 359
329 330 332 333 335 338 335 335 340 338 334 337 343 349 345 336 339 351 358 356 354 350 349 352 352 351 351 346 343 343 342 341 342 342 344 345 346 349 350 350 350 350 352 353 352 352 352 354 356 356 356 355 354 354 353 352 352 352 353 353 353 352 352 353 353 353 353 353 353 352 353 353 353 352 351 351 353 354 356 358 357 358 358 357 357 358 358 357 357 357 358 359 359 359 359 359 359
328 326 326 323 324 329 330 332 337 334 333 340 345 348 346 339 341 353 358 356 353 350 348 350 351 352 350 346 344 343 343 342 341 342 343 344 347 350 351 352 352 352 353 352 352 353 353 353 355 356 356 355 355 354 353 352 352 352 353 353 353 353 353 353 353 353 352 353 352 352 353 354 354 354 353 352 352 352 355 358 358 358 359 358 358 359 360 359 358 358 358 358 359 359 358 359 358
326 323 321 318 321 329 329 327 328 328 333 342 345 347 343 337 343 355 356 353 352 349 348 349 350 351 350 347 344 344 344 344 343 342 343 345 348 351 352 353 354 353 353 352 352 353 354 354 355 355 356 356 356 355 354 353 353 353 353 354 353 353 353 353 353 352 351 352 352 352 353 353 353 353 353 352 352 352 353 356 358 358 359 359 359 360 360 360 359 359 359 358 358 358 358 358 357
326 325 324 317 318 325 326 323 323 325 332 339 346 345 337 334 346 356 352 351 351 349 349 350 350 350 350 348 344 344 345 344 344 343 343 346 349 351 352 353 354 353 352 352 352 353 354 355 356 356 356 357 356 356 355 354 353 354 354 354 354 354 353 353 353 353 352 352 352 352 352 352 351 351 352 353 354 353 354 356 357 358 359 360 359 359 359 360 361 359 360 360 358 358 358 357 357
325 327 325 317 318 323 321 321 324 325 328 334 339 339 337 342 354 356 353 351 350 351 351 350 350 349 349 349 346 344 344 345 345 344 345 347 349 350 352 353 353 353 352 352 352 354 355 356 356 356 357 357 356 356 356 355 354 354 354 354 354 354 354 354 354 354 354 353 352 352 353 353 352 351 353 353 354 355 354 356 357 357 358 359 359 359 358 360 362 360 359 360 359 358 358 358 358
326 326 321 321 326 327 320 318 324 325 325 328 330 331 335 342 349 354 356 354 351 352 352 350 350 349 350 350 347 344 344 345 346 345 346 348 349 350 351 352 352 352 352 352 353 354 355 356 357 356 357 357 357 356 357 356 356 355 356 355 354 354 354 354 354 355 354 353 353 354 353 353 353 353 353 352 352 354 354 355 356 357 358 359 359 359 358 359 361 360 360 361 360 359 360 359 358
325 321 322 327 332 331 324 321 326 328 326 327 327 327 329 331 341 356 359 356 355 353 352 351 350 349 350 351 349 346 344 345 347 347 347 348 350 350 350 351 352 351 351 352 354 355 355 355 356 356 356 356 356 356 356 356 357 356 356 356 354 354 354 354 354 354 353 353 353 354 353 353 353 353 352 352 352 354 355 356 357 357 358 358 358 358 357 357 359 359 360 361 361 361 361 361 360
327 325 329 331 326 325 325 324 328 330 328 327 325 325 327 330 339 352 355 356 358 356 353 352 351 350 350 349 349 347 345 345 347 347 346 348 350 351 351 351 352 352 351 352 354 355 355 355 355 355 355 356 356 355 355 355 356 355 354 355 354 353 354 354 354 354 354 353 353 353 353 353 354 353 353 354 354 354 355 356 357 357 357 358 358 357 357 357 358 359 359 359 359 361 362 361 360
332 331 333 333 327 325 327 327 328 328 329 332 331 328 329 337 347 353 356 360 359 356 355 353 351 350 350 349 348 347 346 345 346 347 347 348 350 351 351 351 352 353 352 352 353 354 354 354 354 354 354 356 356 355 355 355 355 354 353 354 354 353 353 353 354 355 354 354 353 353 352 353 354 354 354 355 355 354 355 356 356 355 355 355 356 356 356 357 358 358 358 358 358 362 362 361 359
329 324 327 331 330 329 332 330 326 326 328 335 340 334 330 344 357 357 358 360 358 356 355 353 351 351 352 351 348 347 347 345 346 346 345 348 350 349 350 351 352 354 353 351 352 353 354 354 354 355 354 355 355 355 355 356 356 354 354 353 353 353 353 353 353 354 354 354 354 353 353 354 354 354 354 355 355 355 355 356 355 355 354 355 356 357 356 357 357 358 359 358 358 361 361 360 359
330 326 329 333 331 329 329 327 325 327 328 332 339 336 335 349 358 355 356 357 357 356 353 352 353 353 352 351 348 348 348 346 346 345 343 347 350 349 349 351 352 354 354 352 352 353 354 355 355 355 355 355 355 355 355 357 357 356 355 353 353 353 354 353 353 354 354 354 354 354 354 355 355 356 356 355 355 355 355 356 356 355 356 356 357 358 357 356 357 358 359 358 357 359 360 359 359
Wind_Speed
8 6 5 2 1 2 3 2 2 3 3 3 5 4 6 5 6 8 9 7 7 6 5 9 10 5 3 4 6 5 4 4 5 2 5 8 15 16 12 12 14 13 12 11 10 10 10 12 14 13 12 12 11 12 13 13 13 13 12 14 11 8 10 13 14 15 16 16 16 17 18 18 18 17 17 17 17 19 21 21 19 17 16 16 15 15 15 16 17 16 16 17 17 18 19 20 20
6 5 4 2 2 2 1 1 2 4 3 4 5 5 7 5 6 9 8 6 7 8 9 10 9 5 2 4 5 4 7 9 9 7 8 15 18 13 12 13 14 13 13 12 11 11 10 11 14 12 11 11 11 13 13 13 14 14 13 14 11 9 11 12 14 16 16 16 15 15 16 18 18 18 17 17 17 19 20 21 19 17 15 15 16 15 15 16 17 16 16 16 16 17 20 20 20
5 4 3 2 3 2 1 2 3 3 5 5 5 6 6 6 8 9 8 8 10 11 12 10 8 5 3 6 4 3 7 7 10 10 10 16 16 12 14 13 13 13 12 12 11 11 10 11 14 12 10 10 12 13 14 13 15 14 14 13 12 12 11 12 15 15 15 15 15 14 16 17 18 18 17 16 17 19 20 20 18 17 15 15 15 15 14 15 16 16 17 17 16 18 20 20 19
3 2 2 2 2 1 2 2 3 1 5 5 5 6 6 8 10 9 9 10 11 12 11 9 6 4 3 6 5 5 8 6 9 10 10 14 15 15 16 14 14 13 12 12 11 11 11 11 13 13 9 10 12 14 14 14 15 15 14 13 13 13 12 13 15 15 15 15 15 15 15 16 17 18 16 15 16 17 19 18 18 19 18 15 13 14 15 15 16 16 17 18 18 18 20 19 19
3 2 2 2 1 1 2 1 4 1 4 4 5 7 7 9 10 10 11 11 10 11 9 6 6 5 6 8 4 4 7 7 10 13 12 14 16 18 16 14 14 13 12 11 11 11 11 12 13 12 9 11 13 13 15 14 15 16 15 13 13 13 12 14 15 16 16 15 15 15 15 15 16 17 17 14 14 15 17 17 16 18 19 18 14 12 14 15 16 16 17 18 18 20 20 19 19
3 3 3 3 1 1 2 2 3 3 6 4 6 7 8 9 10 11 12 11 9 9 6 4 7 9 8 9 8 7 6 8 13 13 14 16 17 17 16 14 13 13 13 11 11 11 12 12 13 12 9 11 13 13 15 15 15 15 15 14 14 14 13 15 16 16 15 14 14 15 15 16 16 16 17 16 13 13 15 16 16 16 17 20 17 13 14 15 16 17 16 17 17 18 19 19 19
3 3 3 4 2 2 3 2 2 5 6 5 6 7 8 10 10 11 12 11 9 7 5 5 9 9 7 6 8 9 8 11 12 12 15 17 17 16 15 13 13 13 12 11 11 11 12 13 13 13 10 9 11 13 14 15 15 14 14 14 15 14 15 16 16 16 15 13 13 14 15 16 17 17 17 17 14 12 13 15 15 14 15 19 21 17 14 13 14 16 17 17 16 16 16 17 17
4 4 2 3 2 2 2 3 4 5 5 4 6 7 8 9 10 10 11 10 8 6 6 7 8 8 7 5 8 9 10 12 13 16 18 18 17 16 14 13 13 12 11 10 10 11 12 13 12 12 11 9 9 11 13 14 14 13 13 13 14 15 16 16 16 16 14 13 13 14 15 16 17 18 17 16 15 13 12 13 14 14 13 16 21 19 16 13 12 14 17 16 15 15 15 15 15
4 4 2 3 2 1 1 3 5 5 6 5 6 7 7 7 8 8 8 9 8 8 8 7 5 8 10 10 10 9 10 13 16 18 18 17 16 15 13 12 12 12 11 10 11 11 11 11 11 10 10 10 10 10 12 13 13 13 13 13 13 15 16 16 16 15 13 14 14 14 15 15 16 17 17 16 15 14 12 12 13 14 13 14 17 19 20 16 13 14 15 15 15 15 16 15 16
4 3 2 3 1 2 1 2 4 5 6 5 6 7 6 4 6 7 7 9 9 8 9 6 7 11 12 12 10 8 12 16 18 17 16 16 15 13 12 12 11 11 11 10 11 10 10 10 10 9 9 11 11 10 12 13 13 14 13 14 14 15 15 15 15 14 13 13 13 12 14 15 16 16 16 17 15 13 14 13 13 13 13 13 14 17 19 18 15 14 14 14 15 15 15 15 15
3 2 2 4 2 2 3 2 3 4 4 5 7 6 5 4 5 6 7 9 8 8 9 7 10 14 13 12 7 8 14 16 17 16 15 14 13 12 12 11 10 10 10 10 9 9 10 9 8 8 7 7 8 8 11 13 13 14 13 13 14 15 15 14 14 14 13 12 12 12 13 15 16 16 15 17 16 14 14 13 13 13 13 12 12 13 16 17 16 14 13 13 14 14 13 13 13
3 1 3 3 1 2 4 4 4 4 3 5 7 5 4 5 5 6 7 8 8 9 8 6 10 12 12 11 7 10 15 15 15 16 15 13 12 12 11 11 10 9 9 9 8 8 9 8 6 6 6 6 6 6 8 11 12 12 13 13 14 14 14 15 14 13 13 13 14 13 13 14 15 16 15 16 17 15 13 13 12 12 12 11 11 12 14 15 14 13 13 13 13 13 12 12 11
4 3 4 3 2 2 5 5 5 5 4 5 6 5 4 5 5 6 6 8 8 8 7 7 10 10 10 10 8 11 14 14 15 15 14 13 12 11 10 10 10 9 8 8 7 8 8 7 6 5 6 6 6 5 6 9 10 10 11 13 14 13 13 15 14 13 13 13 15 14 12 14 14 14 14 15 16 15 13 12 11 11 11 10 11 11 12 13 13 12 12 12 12 11 11 11 11
4 3 5 2 1 1 4 5 6 5 4 5 5 5 5 3 4 4 5 8 7 6 8 8 10 10 10 10 8 9 12 15 15 14 13 12 11 10 10 10 10 9 7 7 6 7 8 8 7 6 5 6 7 6 5 7 9 9 9 11 13 13 13 14 14 14 14 14 15 15 13 13 13 13 14 13 14 13 12 11 11 10 10 10 10 10 10 11 11 11 11 11 10 10 9 9 10
4 2 4 2 1 3 3 3 6 5 4 6 5 6 5 3 3 4 3 6 8 7 8 7 6 7 10 10 8 11 15 17 16 15 13 12 12 11 11 10 9 8 7 7 6 7 8 8 7 6 6 7 8 6 5 6 8 9 9 11 12 12 13 14 15 14 15 15 14 14 13 13 12 12 12 11 11 12 12 11 10 10 9 9 9 9 9 9 10 10 10 9 8 8 7 7 8
3 3 4 3 1 2 2 3 6 5 5 8 6 7 7 6 4 3 4 4 8 7 6 6 3 3 8 11 12 17 19 19 17 15 14 13 12 12 11 10 9 8 7 7 6 7 8 8 7 6 6 7 7 6 7 7 8 10 9 11 12 13 13 14 14 14 15 15 14 15 14 13 12 12 11 10 10 11 11 10 10 9 8 8 8 8 8 8 8 8 8 8 7 7 7 8 8
3 4 4 2 1 0 1 2 5 4 6 9 8 9 8 8 5 4 4 5 9 8 5 7 4 3 8 13 18 23 21 19 17 16 15 13 12 11 10 9 9 8 7 7 6 7 8 7 7 7 7 7 7 7 7 7 9 11 10 11 12 12 13 13 14 14 15 14 14 14 14 12 11 10 10 9 9 9 10 9 9 8 7 7 7 7 7 7 7 7 7 7 7 7 8 8 9
4 3 3 2 3 3 4 4 2 4 8 11 10 10 8 10 9 7 8 7 9 9 8 9 8 9 14 20 23 23 20 19 18 16 15 13 11 10 10 9 8 7 7 7 7 7 8 7 7 7 7 7 7 7 7 7 9 11 11 11 11 12 13 13 14 14 14 14 13 13 12 11 10 9 9 9 8 9 9 9 8 7 6 6 6 7 7 7 7 7 7 7 7 8 9 6 5
4 3 3 2 5 4 4 6 3 2 6 11 10 9 8 10 10 8 8 10 10 10 10 11 13 15 18 23 23 22 20 19 17 16 14 12 10 10 9 9 8 7 7 7 7 7 7 8 7 8 8 8 7 7 7 7 9 11 11 12 12 12 13 12 13 12 12 13 13 11 11 11 10 10 9 10 9 9 9 8 7 6 5 6 7 7 7 7 8 8 7 8 8 8 7 4 3
2 3 3 3 6 6 4 4 1 1 4 12 11 8 9 10 9 7 7 10 10 9 10 11 14 17 19 20 22 21 19 18 17 15 13 11 10 9 9 8 8 7 7 7 7 7 7 8 8 8 8 8 8 7 7 7 8 9 10 11 13 13 12 12 12 11 11 12 12 10 11 12 12 12 12 11 10 9 9 7 7 7 6 6 7 6 6 8 8 8 8 8 6 5 4 3 4
2 2 4 4 6 5 5 4 1 1 5 10 12 9 10 9 8 7 8 8 7 8 10 12 14 18 19 19 20 21 19 18 16 14 13 11 9 8 8 8 8 7 7 7 7 8 8 8 8 8 8 7 7 7 8 8 8 8 9 9 11 12 12 11 12 11 12 12 11 10 12 13 11 11 11 9 9 9 8 7 6 6 6 6 6 5 5 6 6 6 6 5 4 3 4 4 4
4 2 3 6 6 6 4 2 3 1 4 9 12 11 10 9 7 8 8 4 4 6 8 12 15 17 19 19 19 19 18 17 15 14 13 12 10 8 8 7 7 8 7 7 7 8 8 8 8 8 8 8 7 7 8 9 8 8 8 9 11 12 12 12 12 11 11 11 11 11 11 11 9 10 9 8 8 8 8 7 6 6 6 5 5 5 5 5 5 5 4 4 3 4 5 5 4
4 2 3 5 6 7 4 3 3 1 5 9 10 9 9 9 8 8 6 3 5 7 9 13 16 17 19 18 18 17 16 15 15 14 12 11 10 8 8 7 7 7 7 7 7 7 7 7 8 8 8 8 8 8 8 8 8 8 9 10 11 11 12 12 12 11 11 11 11 11 10 9 9 9 9 8 8 7 7 7 6 6 6 6 5 5 5 4 4 4 4 4 4 4 5 4 4
5 4 4 5 6 6 3 4 3 1 2 6 7 8 9 9 8 8 6 4 6 9 10 13 16 19 19 17 16 15 15 15 14 13 12 11 10 8 7 7 7 7 7 7 8 7 7 8 8 8 8 8 9 8 8 8 8 9 10 10 11 11 12 12 12 12 12 11 10 10 9 9 9 9 9 8 8 7 7 7 7 6 6 5 5 4 4 4 4 4 4 4 4 4 5 5 5
5 4 3 4 6 5 2 4 5 4 3 2 7 8 7 6 7 7 7 7 8 11 13 14 16 17 17 16 15 14 14 14 14 13 12 10 9 8 7 7 8 8 8 8 8 7 7 8 8 8 8 8 8 8 8 8 8 9 9 10 11 11 11 12 12 12 12 11 10 9 8 8 9 9 9 8 8 8 7 7 7 6 6 5 4 4 4 4 4 4 4 4 5 4 5 6 5
1 2 2 2 5 5 2 5 7 6 3 2 7 8 5 6 7 7 7 9 11 12 14 14 15 16 15 14 14 13 13 13 14 13 11 10 9 9 8 7 8 8 9 9 8 8 7 8 8 8 8 8 8 8 8 8 8 9 9 10 11 11 11 12 12 12 12 11 10 9 8 8 8 9 8 8 8 8 7 7 6 6 6 4 4 4 4 4 4 5 4 4 5 5 6 6 5
1 1 2 2 3 5 3 5 7 6 5 3 6 8 6 7 7 6 8 10 12 13 14 14 14 15 14 13 13 13 13 13 13 13 12 11 10 9 8 8 8 9 9 9 8 8 8 8 8 8 8 8 8 8 8 8 9 9 9 10 11 11 11 12 11 11 11 11 10 10 9 8 8 8 9 9 8 8 7 6 6 5 5 4 3 4 4 4 4 4 5 5 6 5 5 6 6
1 3 3 2 2 5 5 6 7 6 5 2 5 7 6 7 6 5 11 12 12 14 14 14 13 14 14 13 12 11 12 13 13 12 12 11 10 9 9 8 9 9 9 9 9 8 9 8 9 9 8 8 8 9 9 8 9 9 10 10 10 11 12 11 11 11 11 11 10 10 10 8 8 8 9 8 8 7 6 6 6 5 4 3 3 3 3 4 3 4 5 5 5 5 5 6 5
2 4 3 3 3 4 5 5 7 6 5 4 5 6 6 8 7 6 13 12 12 14 13 14 13 13 13 12 11 9 11 12 12 12 12 11 9 9 9 9 10 9 9 9 9 9 10 9 9 9 9 9 8 9 9 9 9 9 9 10 11 12 11 11 11 11 11 11 10 9 9 9 8 8 8 8 6 6 6 5 5 4 3 3 3 3 3 3 3 4 4 4 5 4 5 6 5
3 3 4 3 4 5 4 4 7 7 6 6 5 4 6 10 9 9 12 13 13 13 13 13 12 12 12 11 10 9 11 12 12 11 11 10 9 9 9 9 10 9 8 9 10 11 10 9 9 9 9 9 8 8 8 9 9 9 9 10 11 11 10 10 11 11 11 10 10 9 9 9 8 8 8 7 6 6 6 5 4 4 3 3 3 3 2 3 4 4 4 5 4 4 5 6 5
3 3 4 3 2 4 5 4 7 7 5 5 3 3 6 11 12 11 13 14 14 13 13 13 12 12 12 11 11 10 10 12 12 12 11 11 10 9 9 9 10 9 8 9 11 11 10 10 9 9 9 9 9 8 8 9 9 9 10 11 11 10 10 10 10 11 11 10 9 9 9 8 8 8 7 6 5 5 5 4 4 4 3 3 3 2 2 3 3 4 5 6 5 5 4 5 5
4 3 3 3 2 3 7 6 6 5 4 5 4 3 5 10 12 12 13 14 14 12 12 13 12 13 12 11 11 10 10 12 12 12 12 12 10 10 10 10 10 9 9 9 11 11 11 10 9 9 10 9 9 9 9 9 9 10 10 11 11 10 10 10 10 10 10 10 9 9 9 9 8 8 7 6 4 4 4 4 4 4 3 2 2 2 2 3 3 4 6 6 6 6 3 4 5
3 4 3 1 3 2 5 5 4 3 4 7 7 5 3 7 10 11 13 13 14 12 12 13 13 13 12 11 10 9 10 11 11 12 12 12 10 10 10 10 10 9 9 10 12 12 11 11 10 10 10 9 9 9 9 9 9 10 10 11 11 10 10 10 10 10 10 9 9 9 9 9 8 7 7 6 3 3 3 3 4 3 3 2 2 2 2 2 3 4 5 6 6 5 4 4 4
3 3 2 2 4 3 1 3 5 5 5 8 9 5 1 5 9 10 12 13 13 12 12 13 12 12 12 11 11 10 10 10 10 12 13 12 11 11 10 10 10 10 10 10 12 12 11 11 10 10 10 10 10 10 10 10 10 10 10 11 10 10 10 10 10 10 10 9 9 9 9 9 8 7 7 6 3 3 3 3 3 3 3 2 2 1 2 3 4 4 5 6 6 5 4 4 3
1 1 2 2 3 3 2 1 5 7 7 9 9 4 2 5 6 7 9 11 12 12 12 12 12 13 12 11 11 10 10 10 11 13 14 13 12 11 10 10 11 10 10 11 12 12 11 11 10 10 11 10 10 10 10 10 10 10 10 11 10 10 9 10 10 9 9 9 9 9 9 8 8 7 6 5 3 2 3 3 3 3 3 3 3 2 2 3 5 6 6 6 5 4 4 4 3
2 2 3 3 2 1 2 3 5 7 6 7 7 5 3 5 5 7 9 10 10 11 11 11 11 12 12 11 11 10 11 10 12 14 14 13 12 11 11 10 11 11 11 12 12 12 12 11 10 11 11 11 11 10 10 10 10 10 11 11 10 9 9 9 9 9 8 8 9 10 9 8 7 7 6 5 3 3 3 3 3 3 3 3 4 4 3 4 5 5 6 6 6 4 3 3 3
4 4 4 3 2 1 4 4 2 3 3 4 5 5 4 5 6 9 10 10 11 11 11 11 11 11 11 11 11 11 11 11 13 14 13 13 13 12 11 11 12 12 12 13 13 13 12 12 11 11 11 11 11 11 10 10 10 10 11 11 11 10 10 9 9 8 8 8 9 10 9 8 8 7 6 5 4 3 3 3 3 3 3 4 4 5 5 5 5 5 5 5 5 4 3 3 4
6 4 4 3 2 3 6 5 2 1 2 2 4 4 5 5 7 9 10 11 12 12 12 12 13 12 11 12 12 12 11 11 13 14 13 13 13 13 12 11 12 13 14 14 14 13 13 12 12 12 12 12 11 11 10 10 10 10 10 11 11 11 10 9 9 9 9 9 10 9 9 8 8 7 6 5 4 3 3 3 3 3 3 3 4 4 4 4 4 5 5 5 4 3 3 4 4
6 4 4 3 2 3 3 3 3 2 2 1 3 3 3 3 5 8 11 11 11 11 11 11 13 13 12 12 12 13 12 11 12 13 13 14 13 13 12 11 12 13 14 15 14 14 14 13 13 12 12 12 12 11 11 10 10 9 9 10 10 10 10 8 8 8 9 10 10 9 8 8 8 7 6 5 4 3 3 3 3 3 3 3 3 4 4 4 4 4 5 5 4 1 2 4 5
5 3 4 2 3 4 2 2 3 3 1 0 3 2 2 1 2 6 9 10 9 10 11 11 11 12 12 13 12 14 14 13 12 13 13 14 14 14 12 12 13 13 14 15 15 15 15 14 14 13 13 12 12 12 11 10 10 9 8 9 8 8 8 7 8 8 8 9 10 9 8 8 7 7 6 6 4 4 3 3 3 3 3 3 3 3 3 3 4 3 4 5 5 3 2 3 4
5 3 4 1 2 7 4 2 2 4 2 2 4 1 1 3 5 6 6 8 9 10 11 11 11 11 11 12 13 14 14 13 13 13 13 14 14 14 13 13 13 13 14 15 16 15 15 15 15 14 13 12 12 12 11 10 10 10 9 9 8 7 8 8 8 9 9 9 9 9 8 8 7 6 6 5 4 4 4 3 3 3 3 3 2 2 3 3 3 3 4 4 5 5 5 3 3
5 4 1 3 1 8 4 1 3 3 3 5 6 1 1 4 8 7 5 7 10 10 12 13 12 12 11 11 12 14 14 13 13 12 13 14 15 14 13 13 14 14 14 14 15 15 14 15 15 14 13 13 12 12 12 11 11 11 11 10 9 8 9 8 8 9 10 9 9 9 9 8 7 6 6 5 4 4 4 3 3 3 3 3 2 2 2 3 3 3 3 3 4 5 6 5 2
5 5 5 6 1 8 3 3 5 2 1 4 6 4 1 3 8 9 8 10 11 10 12 14 12 12 12 11 11 13 14 14 13 12 13 14 14 14 14 14 15 14 14 14 15 15 14 15 16 15 14 13 12 13 13 12 12 12 11 10 9 9 9 8 8 8 9 9 8 8 8 8 7 7 6 5 4 4 4 3 2 2 2 2 2 2 2 2 2 3 3 3 4 5 6 7 5
3 5 4 4 1 6 3 3 5 2 2 3 7 5 2 3 5 9 11 13 13 13 14 14 13 13 13 13 12 13 14 14 13 13 13 14 14 15 15 15 15 14 14 14 15 15 15 15 16 15 14 13 13 14 14 13 12 12 11 10 9 9 8 8 8 7 7 7 7 7 8 8 7 6 5 5 4 4 3 3 3 2 2 2 3 2 2 2 2 3 2 3 3 4 5 5 7
2 3 3 4 3 4 5 4 4 1 2 3 6 6 4 3 4 7 11 13 14 16 16 14 15 15 15 15 15 14 14 14 14 13 13 14 15 15 15 15 15 15 14 15 15 15 15 15 16 15 14 14 14 15 15 14 13 12 12 11 9 9 8 8 9 7 7 7 7 7 6 7 7 7 6 5 5 4 4 3 3 3 3 2 3 3 2 2 2 2 1 2 2 3 3 3 4
1 3 3 5 5 5 6 5 4 2 4 5 7 10 5 3 5 7 9 13 14 15 14 15 15 15 15 15 15 15 14 14 14 13 14 15 16 15 15 15 15 15 14 15 15 15 16 16 16 16 15 15 15 15 16 14 13 12 12 11 10 9 9 8 9 8 7 7 7 7 6 6 6 7 7 6 6 5 5 4 4 4 3 3 3 2 2 2 2 2 2 1 1 1 1 2 2
3 5 5 5 5 4 6 5 3 4 5 2 6 12 8 3 5 8 8 10 13 14 13 15 16 15 16 15 15 15 14 13 13 13 15 17 16 15 14 15 15 15 15 15 15 16 16 16 16 17 16 15 15 16 16 15 14 13 12 11 11 10 9 9 8 8 8 8 8 8 7 7 7 7 7 7 7 7 6 5 4 4 4 4 3 3 3 3 2 2 2 2 1 1 1 1 2
6 7 6 4 3 3 6 4 4 6 4 3 5 10 9 5 3 7 8 8 12 16 14 15 17 16 16 15 15 15 14 14 14 12 13 15 15 14 14 15 16 16 15 15 16 16 16 16 17 17 17 16 16 17 17 16 15 14 12 12 11 11 10 9 9 9 9 9 9 8 8 7 7 7 7 7 7 7 7 6 5 4 4 4 4 3 3 2 1 2 2 2 2 2 2 2 3
8 7 6 5 4 4 5 5 5 5 1 4 4 7 7 7 4 6 9 10 13 16 14 15 18 17 16 16 15 14 13 14 14 13 12 12 13 14 14 15 16 16 16 16 16 16 16 16 17 18 18 17 16 17 17 17 16 14 13 12 12 11 11 10 9 10 10 9 9 9 8 8 8 8 8 7 7 7 7 6 6 5 5 5 4 4 3 3 2 2 2 3 3 3 3 3 4
8 7 7 7 5 5 6 5 5 4 2 4 4 5 5 6 5 5 9 12 14 16 15 15 17 17 17 17 16 14 14 14 13 13 13 12 13 15 15 16 17 17 18 18 17 16 16 16 17 18 18 18 17 17 17 17 17 15 14 13 12 12 12 11 10 10 10 10 9 9 9 9 9 8 8 7 7 7 7 7 6 6 5 5 5 4 4 4 3 3 3 4 4 3 4 4 5
8 7 8 8 6 6 6 3 3 3 2 4 4 4 4 3 3 4 4 8 11 14 14 13 14 16 16 16 16 15 15 14 12 13 14 13 15 17 16 17 18 18 18 18 17 17 16 16 18 19 19 19 18 17 17 17 17 16 15 14 13 12 12 11 10 10 10 10 9 9 9 8 8 8 7 7 7 7 7 6 6 6 6 5 5 5 5 5 5 5 5 5 5 4 5 5 6
7 7 8 8 6 6 5 4 3 3 2 3 4 4 3 1 5 5 2 4 8 11 13 12 12 13 15 15 15 15 15 14 13 13 13 15 17 18 17 18 18 18 19 19 18 18 18 17 18 19 19 19 19 19 18 17 17 16 16 15 14 13 12 11 10 10 10 10 9 9 9 8 8 7 7 7 7 7 7 7 7 7 6 6 6 6 6 6 5 6 6 6 6 6 6 6 6
3 6 9 6 3 5 6 6 5 5 5 3 3 4 3 4 4 2 2 4 7 10 12 13 12 13 14 14 14 15 15 14 14 13 13 14 17 18 18 18 18 18 19 19 19 19 19 18 19 20 19 19 19 19 19 18 17 16 16 16 16 15 13 12 11 11 10 10 9 9 8 8 8 7 7 7 7 7 7 7 7 7 7 7 7 7 7 7 6 7 7 6 7 6 5 6 7
4 5 6 5 3 5 5 5 5 6 6 3 3 4 3 3 2 2 2 5 8 10 11 12 13 13 13 12 12 14 16 15 14 14 14 15 17 18 18 18 18 19 19 20 21 20 19 19 19 20 21 20 20 20 19 18 17 17 17 17 17 16 15 14 12 11 10 10 10 9 9 8 8 8 8 7 7 7 8 8 8 8 7 7 7 7 7 7 7 7 7 6 7 6 5 6 7
6 3 2 4 5 5 6 5 5 5 5 3 3 4 1 2 1 2 2 3 6 10 12 12 13 14 13 13 13 14 15 15 14 14 14 14 17 19 19 18 18 19 20 20 21 19 19 19 19 20 21 20 20 19 19 18 17 17 16 17 18 17 15 14 12 11 10 10 10 10 9 9 8 8 8 8 8 8 8 8 9 9 8 8 8 8 8 8 8 8 8 8 7 7 7 7 8
5 3 3 4 4 4 4 3 4 3 2 2 2 3 3 3 3 3 3 1 4 9 12 13 15 15 13 12 13 14 15 14 13 14 13 14 17 20 20 20 19 20 20 19 19 19 19 19 19 19 19 19 19 18 18 18 17 17 16 16 17 17 16 15 13 12 11 11 10 10 10 9 9 8 9 9 9 9 8 9 9 9 10 9 9 9 8 9 9 9 8 8 7 6 7 8 8
7 5 5 5 3 3 3 4 4 3 2 1 2 2 3 4 3 5 4 3 3 7 10 12 14 15 13 12 13 13 13 14 14 14 13 14 18 20 20 20 19 19 19 19 19 19 18 18 18 19 19 19 19 19 18 17 17 16 16 16 16 17 16 16 14 13 13 12 11 11 10 9 9 9 9 9 10 10 9 9 9 9 9 9 9 9 9 9 9 9 9 9 8 8 8 9 9
6 4 4 6 5 5 5 6 5 3 2 1 1 4 1 3 4 5 5 4 3 6 9 10 13 15 13 12 12 12 12 13 13 14 14 14 17 19 19 19 18 18 18 18 18 18 18 18 17 18 18 18 18 18 18 17 16 16 16 16 16 16 16 15 15 14 14 13 12 11 11 10 10 10 10 10 10 10 10 10 10 10 9 9 9 9 9 9 10 10 10 10 10 9 10 10 9
Wind_Direction
145 146 144 168 208 258 234 247 257 198 223 93 97 106 93 84 103 113 114 123 117 107 108 121 126 109 101 92 95 80 47 74 49 57 110 112 130 132 133 133 135 133 130 129 128 123 115 113 107 102 100 100 103 104 106 112 112 106 100 95 104 121 118 121 120 114 112 105 104 106 106 109 110 110 108 108 109 109 108 105 104 104 103 103 103 103 100 99 96 92 90 87 87 87 87 85 84
154 161 159 212 238 269 248 242 255 175 147 106 94 87 102 117 120 107 107 114 105 121 134 124 117 97 79 94 96 99 75 51 55 81 98 118 127 127 136 138 138 135 130 129 128 122 115 111 109 110 109 109 110 107 106 110 111 107 102 100 109 113 109 118 116 112 112 107 104 105 107 110 110 108 108 109 111 110 108 106 105 103 102 105 103 99 97 97 97 95 92 89 88 86 85 85 85
165 170 174 242 243 275 282 243 251 169 125 112 98 93 112 116 103 98 100 103 109 130 133 123 115 100 143 131 88 59 90 73 86 103 112 129 131 132 142 141 138 134 128 128 127 125 121 116 114 117 122 119 115 112 113 115 114 112 110 112 120 114 115 124 115 112 113 107 104 104 105 106 106 105 107 110 110 109 108 107 106 103 100 101 98 98 100 98 95 93 90 88 88 85 83 84 84
175 205 239 265 242 270 260 230 267 245 109 114 109 101 107 107 103 103 104 106 121 135 132 127 106 57 52 92 68 62 95 91 101 117 130 141 137 137 144 141 138 132 128 129 128 128 127 124 117 120 129 121 113 113 118 123 120 119 119 121 122 118 128 133 119 116 116 111 106 104 102 102 104 103 104 105 104 107 107 106 106 105 102 97 94 99 100 94 90 88 86 86 85 83 84 85 85
192 229 268 267 255 261 264 262 274 292 81 97 116 107 102 107 110 115 112 116 134 136 134 129 100 92 68 54 40 88 99 102 118 128 132 134 134 138 143 141 140 134 130 129 130 130 133 128 117 124 132 119 114 118 125 130 126 124 127 124 119 123 135 133 123 120 118 114 109 106 105 103 103 103 104 99 99 105 106 105 105 105 106 105 98 95 94 93 92 88 85 86 84 80 83 85 83
223 234 217 242 288 311 249 236 239 106 61 42 109 110 105 113 118 123 121 124 134 131 127 107 108 117 91 62 55 67 90 116 128 130 129 132 135 139 139 140 139 132 130 130 131 132 135 125 116 127 131 121 120 124 129 129 128 130 132 128 124 130 135 131 127 123 117 114 113 113 113 109 101 101 104 101 99 103 105 104 103 104 107 109 105 95 89 92 95 93 89 86 83 79 81 81 80
267 255 200 224 222 209 235 183 135 94 68 29 93 111 112 122 128 130 127 127 133 133 124 105 114 111 97 98 77 64 87 116 129 129 130 134 136 137 137 138 134 132 132 131 130 131 132 122 120 127 127 126 124 130 133 128 129 133 132 130 132 136 133 130 128 125 121 121 120 117 118 115 107 102 101 102 101 100 103 103 103 104 104 106 107 102 90 87 91 95 92 87 86 84 82 80 82
269 269 216 250 228 202 255 103 69 66 86 59 76 99 116 131 136 136 133 133 145 146 135 126 117 99 93 100 85 80 95 110 121 123 129 133 135 137 138 138 136 136 134 131 129 128 130 124 126 128 130 133 131 136 134 130 131 132 132 134 139 134 128 128 128 127 128 130 122 117 119 117 113 109 106 106 105 101 99 101 105 104 100 101 106 107 101 92 83 85 87 86 85 85 84 83 83
249 258 246 267 272 114 342 91 88 74 95 96 84 97 120 139 140 139 133 131 147 146 132 130 109 99 103 93 94 99 100 110 118 124 132 134 137 139 140 141 138 137 134 132 127 127 130 127 129 134 139 137 137 142 132 129 131 133 138 142 140 129 123 124 127 128 127 127 120 117 118 116 115 113 111 108 106 104 101 100 103 102 97 95 100 105 107 101 84 78 80 77 77 76 76 74 73
243 231 272 269 249 114 122 95 97 89 92 100 98 115 132 145 147 140 129 126 138 131 115 110 101 113 112 99 99 103 109 121 125 128 135 136 139 139 138 138 135 136 133 131 129 129 131 132 139 145 149 139 137 141 132 134 135 137 143 141 134 126 123 123 125 125 121 121 117 115 116 115 113 110 111 107 104 105 105 102 101 100 95 91 92 98 104 104 97 87 79 75 75 72 69 66 64
261 194 267 267 211 137 139 118 101 92 97 113 111 123 140 154 160 141 126 125 129 123 122 120 111 116 110 98 94 104 120 132 132 132 137 137 138 137 136 135 134 134 131 132 133 132 135 138 149 157 160 148 142 135 129 134 135 135 140 136 127 124 124 120 120 120 121 122 116 117 115 111 108 107 108 107 104 103 104 103 100 96 93 90 88 90 95 99 100 97 91 86 81 76 70 65 60
296 257 259 272 313 80 123 136 131 116 137 150 131 128 145 167 164 139 129 126 130 133 132 128 124 126 114 104 104 122 133 138 136 136 140 140 139 138 136 136 136 134 133 136 135 134 135 133 143 165 174 167 153 138 126 128 127 132 140 134 122 120 120 117 116 118 124 125 120 118 114 108 106 106 106 106 105 104 105 103 98 92 89 88 86 86 88 91 95 95 94 90 86 82 76 69 62
319 332 294 305 2 52 126 137 138 140 163 150 124 129 155 176 160 134 130 126 134 140 125 124 137 132 112 109 120 136 141 141 140 141 142 142 140 139 136 136 136 136 137 138 137 132 127 123 129 153 171 162 142 134 126 122 120 127 136 131 122 120 118 117 119 123 125 125 124 120 113 108 107 106 104 101 101 105 106 99 94 90 88 87 83 84 85 89 90 89 90 89 88 85 79 72 66
325 332 307 321 60 175 139 135 148 157 158 134 115 136 157 163 144 131 131 129 122 117 111 126 140 124 115 122 135 146 146 145 146 144 143 141 139 138 135 134 136 140 143 143 140 130 123 121 125 133 146 136 120 115 111 114 117 117 123 127 127 123 120 120 122 124 125 126 126 121 114 112 110 107 101 96 97 101 102 96 90 87 88 87 85 87 86 86 86 85 86 86 87 83 79 70 63
316 315 292 291 159 198 161 145 168 175 156 149 140 147 147 110 143 142 109 115 103 104 115 129 143 134 140 147 150 147 145 149 148 146 144 140 139 137 135 137 139 143 147 145 139 129 123 120 123 125 125 118 115 117 111 114 119 118 121 126 127 125 123 122 121 122 124 126 124 120 117 114 111 106 102 100 98 97 99 96 89 84 86 87 88 93 90 88 88 88 86 84 85 81 75 64 59
312 301 279 277 234 208 164 159 177 180 158 154 146 154 147 119 144 126 77 102 114 126 143 136 144 162 155 150 141 139 144 148 148 147 145 142 142 138 139 142 141 145 147 145 135 124 120 120 124 121 115 112 117 121 116 117 120 123 128 128 124 123 124 122 120 121 122 125 126 122 117 113 110 106 103 103 103 102 103 99 92 87 89 90 92 98 98 97 95 93 90 87 85 80 73 63 56
287 277 279 291 298 316 27 182 164 149 150 149 154 166 154 132 130 118 123 133 123 127 126 117 118 130 136 131 131 136 143 146 147 149 147 148 148 144 146 146 146 150 149 146 134 122 119 120 123 119 114 114 118 119 118 123 124 122 123 122 121 123 124 122 119 117 120 124 126 121 113 111 112 107 102 101 105 110 110 103 97 93 96 95 92 97 101 101 100 98 95 91 87 80 73 61 47
276 274 293 322 357 21 351 320 78 123 162 151 162 173 160 147 140 145 149 128 121 122 113 109 104 106 116 122 129 136 142 147 151 154 153 156 156 151 151 152 155 154 150 147 137 126 122 125 127 122 117 119 123 122 125 133 126 121 122 123 124 127 123 119 117 116 120 123 121 118 113 113 114 112 107 106 110 117 114 105 100 96 96 91 86 95 100 99 99 100 98 93 86 76 75 68 43
274 293 303 5 10 7 355 324 30 115 185 153 159 175 162 152 145 159 157 135 140 134 123 121 115 117 122 127 134 139 145 151 157 158 157 160 159 156 153 152 155 152 151 148 139 132 128 130 131 125 122 124 125 126 131 134 127 123 127 129 128 127 121 119 118 117 121 122 120 118 119 122 122 119 114 114 117 119 114 106 106 100 93 91 88 91 94 95 96 97 95 86 76 69 74 75 58
279 295 302 27 5 350 14 321 289 337 223 159 155 169 160 155 151 165 160 146 153 142 136 136 131 135 136 136 140 144 151 156 160 161 158 160 162 159 153 153 155 155 151 145 141 136 133 134 133 129 128 127 125 128 130 129 125 121 126 128 126 125 123 121 117 118 122 123 121 119 125 127 123 119 117 119 120 118 113 109 106 96 91 95 91 86 83 86 86 84 80 75 73 71 73 62 50
291 286 310 2 351 342 12 323 180 334 260 169 153 159 155 153 157 166 161 155 158 149 150 148 143 145 143 143 145 150 155 158 162 162 159 161 165 161 154 153 150 150 149 144 144 138 135 136 135 131 127 127 125 126 128 126 124 122 125 126 125 125 126 124 119 122 127 128 125 124 126 123 120 120 121 124 124 122 120 119 112 102 103 102 96 95 93 86 86 85 74 72 82 84 70 54 46
283 267 331 352 340 351 19 5 101 25 256 175 157 158 150 152 163 170 165 142 134 142 144 144 146 149 148 146 148 153 158 160 163 161 160 161 164 162 152 148 143 145 150 148 144 137 136 135 134 130 124 123 119 121 125 125 123 123 126 124 124 126 127 127 124 127 130 131 129 129 129 125 127 129 128 131 128 125 125 125 120 115 116 110 103 101 99 91 91 90 79 73 74 79 71 54 49
277 262 19 4 353 7 38 86 68 327 214 175 158 147 150 163 165 167 164 85 94 121 130 138 143 148 148 147 150 156 159 162 163 161 163 163 164 162 153 151 147 148 151 147 141 136 139 137 131 126 122 120 118 120 122 122 123 123 126 125 126 128 130 130 127 131 133 131 131 132 134 134 135 132 131 131 126 124 124 123 121 119 117 108 103 99 97 92 88 79 72 71 61 67 70 59 57
262 293 10 22 30 34 52 100 115 204 174 158 141 142 164 169 154 156 159 113 109 118 128 135 139 147 148 149 154 156 159 161 160 159 161 162 160 157 153 152 150 149 149 147 142 141 144 138 129 123 121 122 121 120 119 121 123 124 127 126 127 131 131 130 130 133 134 133 135 135 137 139 136 132 132 129 125 124 122 122 122 120 115 108 101 96 92 87 84 74 67 68 60 56 62 58 56
244 305 20 45 59 75 109 124 140 131 80 106 133 147 165 155 148 155 153 135 126 126 131 135 138 148 151 152 155 155 159 160 157 157 158 158 155 153 153 152 151 152 151 149 144 143 144 139 132 126 124 126 125 123 119 120 124 127 130 128 130 131 130 130 132 135 137 138 139 138 140 140 136 132 130 127 125 123 123 125 124 120 114 108 102 93 88 84 82 75 63 59 53 44 55 56 49
225 317 48 69 80 90 148 138 137 134 110 139 145 147 143 140 157 157 145 139 134 134 136 139 144 151 154 154 155 156 158 158 156 156 154 152 153 158 159 154 155 155 153 151 147 144 145 143 136 130 129 129 127 125 123 123 126 129 130 131 132 131 131 133 136 138 139 139 139 141 141 138 134 131 127 127 126 125 127 128 124 122 114 104 100 95 89 85 79 72 58 47 42 36 48 52 49
36 264 85 79 105 116 190 154 135 144 139 166 164 155 145 157 185 168 144 144 141 142 143 146 151 153 155 154 155 158 158 157 156 154 153 152 157 162 161 160 158 154 154 154 149 145 148 148 138 133 133 133 133 131 129 128 129 131 132 134 135 134 135 138 140 139 137 136 138 141 137 132 129 128 128 127 128 129 130 129 124 120 113 103 98 99 93 84 78 67 49 34 32 31 46 52 55
235 215 137 120 139 141 178 160 145 155 144 177 169 151 150 173 214 177 146 150 149 147 147 152 156 153 156 155 155 160 158 155 157 158 157 156 160 163 161 163 160 155 159 158 150 148 150 148 139 136 137 138 141 138 135 134 134 137 137 138 139 139 140 140 139 135 134 134 136 137 135 131 125 124 128 129 131 130 131 131 124 118 113 108 94 93 91 83 80 68 47 29 24 27 52 60 60
196 223 222 167 170 158 162 157 165 178 165 172 162 154 174 187 205 160 146 155 154 150 151 155 157 154 156 157 157 161 158 157 161 164 161 156 157 161 162 163 162 158 159 157 153 153 149 147 143 141 144 145 147 142 137 138 139 140 142 142 141 141 140 137 135 134 134 135 135 135 134 131 125 126 131 130 131 129 128 129 124 120 113 110 98 91 94 85 79 68 47 32 29 34 56 64 66
201 230 260 219 196 166 147 156 176 181 158 162 184 185 185 187 186 163 157 161 156 154 156 158 158 157 159 159 161 162 159 162 166 164 157 153 152 158 162 162 163 159 157 158 158 156 148 148 150 145 150 149 145 143 139 139 140 141 143 142 140 139 137 134 134 134 135 137 136 135 134 131 128 131 134 130 132 133 129 126 122 119 111 113 108 94 101 90 72 56 43 33 31 41 56 63 65
221 232 251 244 248 155 150 177 185 182 147 146 214 229 189 182 177 171 170 166 162 161 159 160 160 159 161 162 164 161 162 168 167 162 155 152 151 155 161 162 164 160 158 164 161 157 151 152 154 150 153 150 145 146 144 142 141 142 141 140 139 137 137 136 136 138 139 138 137 136 135 136 136 136 136 132 132 134 132 127 117 110 107 116 110 93 93 85 66 50 38 26 26 34 55 75 75
222 238 237 227 263 156 156 174 188 190 141 145 196 237 201 174 166 172 175 170 168 168 163 162 163 163 163 164 165 162 165 168 166 164 156 154 152 153 161 164 166 163 161 165 162 158 155 155 158 155 155 151 147 148 146 144 143 142 141 139 139 139 139 139 139 141 140 139 137 139 140 141 142 140 140 135 131 136 131 123 116 102 95 104 100 88 90 77 60 49 31 23 26 20 29 77 85
212 244 259 250 274 203 151 158 170 169 146 168 202 234 201 159 165 174 177 175 173 172 168 166 165 165 166 166 167 166 166 166 168 168 159 157 156 154 161 165 167 166 164 165 162 161 159 159 164 159 155 153 150 148 148 147 145 145 144 143 143 143 143 141 142 144 141 140 139 142 145 146 146 144 143 137 130 138 124 114 114 97 84 85 75 79 92 72 47 41 32 23 20 9 12 61 82
198 232 266 272 283 286 201 163 159 172 181 181 200 236 73 138 169 176 178 182 176 175 174 169 167 167 168 169 169 169 168 167 170 169 164 161 158 158 161 163 168 169 166 165 164 165 163 162 165 158 154 154 151 151 151 149 147 147 146 147 147 147 147 145 145 145 143 143 142 146 148 148 148 146 147 141 130 134 123 110 103 89 79 69 57 77 90 64 37 31 31 20 12 8 10 33 54
236 248 285 284 283 285 334 57 153 185 204 184 183 207 94 127 161 176 184 190 183 179 177 171 169 167 168 173 171 169 170 171 170 168 166 162 159 161 161 163 168 169 167 166 165 165 165 165 164 158 156 154 152 153 153 151 151 149 148 149 149 150 148 146 147 146 147 147 146 151 150 148 152 151 150 146 137 133 127 113 96 82 77 64 52 74 85 60 36 22 22 15 5 7 16 25 44
338 346 307 308 321 289 27 58 158 184 204 187 178 195 167 143 172 190 190 199 195 183 178 173 172 169 170 175 173 169 172 171 167 166 165 162 161 162 161 165 168 168 167 164 164 166 167 168 165 162 161 156 154 156 157 156 155 153 152 152 152 154 150 149 152 150 152 151 149 153 153 152 155 155 155 151 144 133 127 115 99 82 76 69 59 60 65 57 40 21 15 9 357 2 35 42 50
290 318 300 301 337 3 43 52 146 170 197 180 166 199 196 155 186 201 189 196 199 188 182 175 175 175 173 177 174 169 173 170 163 164 164 162 163 161 160 168 168 166 166 165 167 168 168 171 169 167 165 162 161 161 163 163 161 158 157 158 157 156 154 154 157 157 155 153 151 154 156 157 158 158 160 156 148 140 136 122 98 83 76 73 63 58 59 58 47 27 12 4 359 9 29 45 52
269 296 296 296 346 23 40 46 73 100 229 163 130 196 206 169 189 201 189 194 199 191 187 179 177 178 175 178 175 170 173 169 163 163 165 165 164 163 161 168 171 167 167 170 171 168 170 173 172 171 169 169 170 168 169 169 166 163 161 161 158 154 158 160 160 160 157 153 154 156 157 161 162 161 161 157 152 150 146 127 104 92 83 75 69 68 70 67 54 38 24 10 359 12 32 34 30
256 267 276 286 342 14 58 86 112 133 238 167 122 181 199 167 197 204 194 199 200 191 191 186 180 179 177 179 175 173 174 172 169 166 168 170 167 165 164 169 174 170 170 174 173 169 171 174 174 175 174 175 177 175 175 174 170 169 165 161 157 155 159 160 156 156 155 154 157 160 161 163 165 164 164 162 159 154 145 130 116 105 92 80 73 75 81 80 65 44 38 24 346 320 88 53 20
237 244 266 299 1 332 358 96 129 153 234 171 136 160 178 168 241 229 205 203 201 193 196 193 185 183 181 181 177 177 177 173 174 172 171 172 169 169 170 172 174 172 173 175 174 172 173 175 176 177 178 179 180 179 179 176 172 171 166 158 152 151 154 154 152 155 157 158 161 165 166 167 168 168 165 165 162 151 143 133 122 115 105 89 81 85 88 91 84 59 48 34 355 338 39 62 44
205 207 269 7 15 317 338 58 137 164 203 166 125 90 242 201 212 219 208 208 206 197 199 197 190 188 186 184 182 181 180 176 179 179 174 172 172 174 174 174 176 175 177 178 177 176 175 176 176 177 179 181 180 180 180 176 172 169 165 160 153 150 156 160 161 163 164 165 169 171 172 173 173 171 167 166 158 146 144 134 120 124 119 102 94 100 95 95 96 75 55 39 21 10 352 9 67
213 164 188 104 32 306 325 304 232 199 205 167 149 166 247 202 206 203 196 215 213 200 200 198 190 188 189 189 186 184 182 181 185 184 177 176 175 175 176 179 180 179 180 181 179 178 176 174 175 177 178 180 180 179 178 174 172 172 170 169 167 164 166 170 172 171 169 173 176 173 173 176 179 177 174 171 159 150 148 137 124 129 124 113 105 106 112 116 110 90 63 39 33 27 353 337 44
243 122 109 117 219 293 296 262 270 293 38 146 176 209 189 204 211 195 190 208 213 212 206 199 192 188 189 192 191 188 185 183 188 188 183 182 178 176 180 184 185 183 181 180 179 177 176 173 174 177 177 178 178 177 178 177 176 178 179 180 178 175 173 170 173 172 171 175 176 173 175 179 185 187 181 176 166 157 153 146 140 137 134 131 127 134 147 139 114 99 70 48 33 29 19 350 345
252 109 130 134 207 286 278 264 280 324 29 163 192 211 216 231 209 183 190 203 208 215 212 201 196 193 191 195 194 192 190 185 186 188 187 186 183 182 185 186 186 184 179 179 179 176 174 174 174 176 177 177 177 176 178 180 182 184 185 185 182 182 176 168 169 170 169 174 174 176 180 181 188 195 189 184 179 173 168 160 156 155 150 144 153 170 166 136 111 103 77 62 40 26 36 10 345
233 123 171 125 116 273 272 273 287 323 281 227 186 192 224 229 175 164 190 206 209 209 208 202 198 194 192 197 196 193 192 190 188 188 188 188 188 188 187 186 185 182 178 179 179 175 173 174 174 175 177 177 177 177 179 183 186 186 186 186 183 182 178 171 172 172 168 173 176 177 183 184 189 198 199 196 190 186 185 179 172 172 170 168 180 185 165 143 123 112 101 80 58 31 31 18 357
156 144 192 136 142 234 256 265 283 250 252 256 178 180 217 228 166 164 191 212 215 209 206 203 199 194 192 196 198 194 191 191 192 189 187 189 192 193 189 186 184 180 177 178 179 176 174 174 175 177 178 179 180 179 180 185 186 186 188 189 186 182 177 176 175 174 174 178 182 183 188 194 195 198 199 199 199 197 193 191 188 184 183 186 192 190 177 170 166 157 151 132 80 50 21 351 349
156 181 200 146 138 234 256 254 262 244 239 243 162 182 214 246 174 173 192 209 209 207 205 198 195 194 193 195 197 194 190 189 192 190 188 189 193 195 190 185 183 179 175 178 180 178 176 176 177 179 180 180 181 181 183 186 188 190 192 192 193 187 182 182 180 179 181 185 190 192 193 199 202 201 198 197 200 199 196 195 195 192 189 190 194 196 201 200 189 183 173 173 198 225 244 277 306
196 208 200 166 152 229 256 237 223 243 229 109 143 187 210 239 192 177 195 204 203 208 205 192 192 195 193 194 196 193 189 188 189 190 189 188 190 195 192 184 181 177 176 179 181 180 179 179 179 180 182 182 182 183 186 189 191 194 197 197 198 195 190 190 189 188 189 190 196 197 196 200 204 205 204 200 199 196 193 195 197 197 196 197 202 202 209 225 223 198 186 198 208 216 237 249 263
212 216 202 213 210 207 247 230 206 234 186 104 146 179 204 244 243 190 195 203 206 212 210 192 189 192 190 192 193 192 190 188 187 189 191 189 188 192 190 182 178 178 179 181 183 182 180 180 182 183 184 185 184 186 188 191 194 197 200 202 201 201 199 198 197 196 195 197 201 201 200 202 204 208 209 206 204 198 193 196 199 200 200 202 209 213 218 231 241 232 218 219 221 217 229 239 247
213 210 208 225 224 215 239 227 209 228 133 113 163 184 217 248 234 196 201 208 208 210 210 197 190 192 191 190 191 190 189 189 188 187 190 191 187 188 187 181 180 182 182 183 183 183 181 181 184 185 187 187 187 188 190 192 197 199 201 204 204 204 204 204 204 203 201 200 203 205 205 206 207 210 212 209 207 203 198 198 200 202 203 206 214 222 227 228 232 238 238 234 232 226 232 240 247
218 215 219 234 231 222 244 244 226 235 153 133 159 194 247 254 160 148 196 209 206 205 204 199 197 198 192 188 190 190 187 188 190 188 189 191 187 187 187 183 184 185 184 185 184 183 183 183 184 187 188 189 190 190 191 194 197 200 202 205 207 207 207 209 209 209 208 206 206 207 209 213 213 210 211 210 208 206 204 203 205 208 207 211 219 223 228 229 227 233 239 243 245 238 237 245 252
218 215 223 239 235 221 253 287 285 290 272 184 179 205 249 193 139 130 136 194 192 193 194 193 198 203 197 190 189 190 187 185 190 191 189 190 188 187 188 186 187 187 185 186 185 184 185 185 185 188 189 190 192 192 193 195 197 199 202 204 207 208 209 211 211 212 214 213 212 212 213 218 220 215 212 210 209 209 209 211 215 216 215 217 222 223 227 226 225 233 238 243 250 247 243 249 257
203 212 223 232 240 235 251 265 257 266 267 227 198 226 215 165 152 139 204 204 178 178 187 190 194 201 201 193 188 191 189 184 188 191 191 191 189 189 190 189 188 188 187 186 186 186 187 187 187 189 190 191 193 194 195 196 196 199 201 203 205 207 210 213 214 213 214 214 217 220 220 221 221 219 216 211 209 210 213 218 221 224 223 223 225 225 229 229 227 236 242 243 250 253 251 254 258
224 222 215 198 209 239 248 259 250 237 241 223 202 238 223 177 175 149 181 187 171 171 177 184 192 200 201 192 188 193 191 184 185 188 189 190 190 189 190 191 189 188 189 188 187 187 188 189 189 190 191 193 194 195 197 197 197 199 201 202 204 207 210 214 215 215 216 215 217 220 223 223 221 219 217 214 211 212 216 220 224 230 229 227 230 231 230 230 231 236 242 244 247 251 253 255 257
251 285 221 204 214 217 212 241 261 242 240 247 211 210 190 34 51 113 127 154 170 173 169 173 188 198 202 193 189 196 194 187 185 186 188 188 189 190 189 191 190 189 190 189 187 188 189 191 193 193 194 196 196 196 197 198 199 200 202 202 204 206 210 213 215 215 216 218 218 220 222 223 221 218 215 216 218 219 220 220 222 227 229 228 230 232 231 230 231 235 241 244 238 234 243 254 257
240 274 238 233 236 226 208 229 261 252 235 256 239 201 122 49 1 358 1 6 189 184 174 176 184 190 199 196 191 197 196 190 188 188 187 187 189 191 190 191 190 188 190 190 188 190 191 192 194 196 196 197 199 199 198 199 201 203 203 202 203 205 208 212 215 215 217 220 220 222 223 221 220 219 216 216 221 226 227 225 224 226 228 229 228 230 232 228 229 233 240 248 243 231 241 255 258
208 214 211 224 209 202 231 242 250 259 239 189 270 272 103 77 352 334 335 318 238 202 185 180 180 182 192 197 195 194 191 190 190 189 189 187 189 192 191 191 190 189 190 190 189 190 192 193 193 196 197 198 200 201 200 201 203 204 205 203 203 204 207 211 214 217 220 222 221 222 223 221 219 219 219 219 222 227 229 229 231 231 232 234 231 232 234 230 229 232 237 246 249 246 250 256 259
212 187 202 236 210 184 216 221 202 211 233 140 228 279 353 41 341 329 332 320 270 209 194 183 178 179 185 195 195 183 178 185 189 190 191 189 190 193 191 189 189 189 189 191 190 190 191 192 192 195 198 199 202 203 202 202 204 206 207 206 205 204 206 211 214 216 218 219 218 217 219 219 220 219 219 222 223 225 227 228 232 234 235 236 235 234 237 236 234 235 239 244 245 242 245 250 254